Aitkin, MN

11:55 AM CDT on June 22, 2017 (GMT -0500)
Aitkin Municipal / Steve Kurtz Field

Weather History for KAIT - January, 2013

Change the Weather History Date:

Sunday, January 6, 2013

  Actual Average Record
Temperature  
Mean Temperature 10 °F -  
Max Temperature 21 °F 17 °F 48 °F (1984)
Min Temperature 0 °F -2 °F -33 °F (1968)
Degree Days  
Heating Degree Days 54    
Moisture  
Dew Point 3 °F    
Average Humidity 65    
Maximum Humidity 79    
Minimum Humidity 46    
Precipitation  
Precipitation 0.00 in - - ()
Sea Level Pressure  
Sea Level Pressure 30.06 in    
Wind  
Wind Speed 4 mph (SSW)    
Max Wind Speed 12 mph    
Max Gust Speed 17 mph    
Visibility 10 miles    
Events      
Averages and records for this station are not official NWS values.
T = Trace of Precipitation, MM = Missing Value Source: NWS Daily Summary

Daily Weather History Graph

Daily Weather History Graph

Search for Another Location

Airport or City:

Trip Planner

Search our weather history database for the weather conditions in past years. The results will help you decide how hot, cold, wet, or windy it might be!

Date:

Astronomy

Jan. 06, 2013 Rise Set
Actual Time 7:58 AM CST 4:43 PM CST
Civil Twilight 7:23 AM CST 5:18 PM CST
Nautical Twilight 6:45 AM CST 5:56 PM CST
Astronomical Twilight 6:09 AM CST 6:32 PM CST
Moon 2:05 AM CST (1/6) 12:18 PM CST (1/6)
Length of Visible Light 9h 54m
Length of Day
8h 45m
Waning Crescent, 33% of the Moon is Illuminated
Jan 6
Waning Crescent
Jan 11
New
Jan 18
First Quarter
Jan 26
Full
Feb 3
Last Quarter

Hourly Weather History & Observations

Time (CST) Temp. Windchill Dew Point Humidity Pressure Visibility Wind Dir Wind Speed Gust Speed Precip Events Conditions
12:13 AM 15.8 °F 6.1 °F 8.6 °F 73% 29.99 in 10.0 mi NW 6.9 mph - N/A   Clear
12:33 AM 15.8 °F - 8.6 °F 73% 29.99 in 10.0 mi Calm Calm - N/A   Clear
12:52 AM 15.8 °F 8.6 °F 8.6 °F 73% 30.00 in 10.0 mi NW 4.6 mph - N/A   Clear
1:13 AM 15.8 °F 8.6 °F 8.6 °F 73% 30.00 in 10.0 mi WNW 4.6 mph - N/A   Clear
1:33 AM 15.8 °F 8.6 °F 8.6 °F 73% 30.00 in 10.0 mi NW 4.6 mph - N/A   Scattered Clouds
1:52 AM 15.8 °F 8.6 °F 8.6 °F 73% 30.01 in 10.0 mi WNW 4.6 mph - N/A   Mostly Cloudy
2:13 AM 15.8 °F 7.2 °F 6.8 °F 68% 30.02 in 10.0 mi WNW 5.8 mph - N/A   Scattered Clouds
2:33 AM 15.8 °F 7.2 °F 6.8 °F 68% 30.02 in 10.0 mi WNW 5.8 mph - N/A   Scattered Clouds
2:52 AM 15.8 °F 8.6 °F 6.8 °F 68% 30.03 in 10.0 mi West 4.6 mph - N/A   Mostly Cloudy
3:13 AM 14.0 °F 6.5 °F 6.8 °F 73% 30.03 in 10.0 mi WNW 4.6 mph - N/A   Scattered Clouds
3:32 AM 14.0 °F - 6.8 °F 73% 30.03 in 10.0 mi Calm Calm - N/A   Clear
3:53 AM 12.2 °F 4.3 °F 5.0 °F 73% 30.04 in 10.0 mi WNW 4.6 mph - N/A   Clear
4:13 AM 12.2 °F 6.1 °F 5.0 °F 73% 30.05 in 10.0 mi WNW 3.5 mph - N/A   Clear
4:32 AM 12.2 °F 6.1 °F 3.2 °F 67% 30.05 in 10.0 mi WNW 3.5 mph - N/A   Clear
4:53 AM 10.4 °F - 3.2 °F 73% 30.06 in 10.0 mi Calm Calm - N/A   Clear
5:13 AM 10.4 °F - 3.2 °F 73% 30.05 in 10.0 mi Calm Calm - N/A   Clear
5:32 AM 8.6 °F - 3.2 °F 79% 30.07 in 10.0 mi Calm Calm - N/A   Clear
5:53 AM 6.8 °F - 1.4 °F 79% 30.07 in 10.0 mi Calm Calm - N/A   Clear
6:13 AM 6.8 °F - -0.4 °F 72% 30.09 in 10.0 mi Calm Calm - N/A   Clear
6:32 AM 6.8 °F - -0.4 °F 72% 30.10 in 10.0 mi Calm Calm - N/A   Clear
6:53 AM 8.6 °F - 1.4 °F 73% 30.11 in 10.0 mi Calm Calm - N/A   Clear
7:13 AM 3.2 °F - -2.2 °F 78% 30.11 in 10.0 mi Calm Calm - N/A   Clear
7:32 AM 3.2 °F - -4.0 °F 72% 30.10 in 10.0 mi Calm Calm - N/A   Clear
7:53 AM 1.4 °F - -5.8 °F 72% 30.11 in 10.0 mi Calm Calm - N/A   Clear
8:13 AM -0.4 °F - -7.6 °F 72% 30.12 in 10.0 mi Calm Calm - N/A   Clear
8:32 AM 3.2 °F - -2.2 °F 78% 30.13 in 10.0 mi Calm Calm - N/A   Clear
8:53 AM 8.6 °F - -0.4 °F 67% 30.13 in 10.0 mi Calm Calm - N/A   Unknown
9:32 AM 10.4 °F 4.0 °F -0.4 °F 62% 30.14 in 10.0 mi West 3.5 mph - N/A   Clear
9:52 AM 10.4 °F - -0.4 °F 62% 30.14 in 10.0 mi Calm Calm - N/A   Clear
10:12 AM 10.4 °F 4.0 °F -0.4 °F 62% 30.15 in 10.0 mi West 3.5 mph - N/A   Clear
10:33 AM 10.4 °F 2.2 °F -0.4 °F 62% 30.15 in 10.0 mi West 4.6 mph - N/A   Clear
10:52 AM 12.2 °F - -0.4 °F 57% 30.15 in 10.0 mi Calm Calm - N/A   Clear
11:12 AM 12.2 °F 6.1 °F 1.4 °F 62% 30.14 in 10.0 mi WSW 3.5 mph - N/A   Clear
11:33 AM 12.2 °F - 1.4 °F 62% 30.13 in 10.0 mi Calm Calm - N/A   Clear
11:52 AM 15.8 °F - 1.4 °F 53% 30.13 in 10.0 mi Calm Calm - N/A   Clear
12:12 PM 15.8 °F - 1.4 °F 53% 30.12 in 10.0 mi Calm Calm - N/A   Clear
12:33 PM 15.8 °F - 3.2 °F 58% 30.11 in 10.0 mi Calm Calm - N/A   Clear
12:52 PM 15.8 °F - 3.2 °F 58% 30.10 in 10.0 mi Calm Calm - N/A   Clear
1:12 PM 17.6 °F - 3.2 °F 53% 30.10 in 10.0 mi Calm Calm - N/A   Clear
1:33 PM 19.4 °F - 3.2 °F 49% 30.10 in 10.0 mi Calm Calm - N/A   Clear
1:52 PM 19.4 °F - 3.2 °F 49% 30.11 in 10.0 mi Calm Calm - N/A   Clear
2:12 PM 21.2 °F - 3.2 °F 46% 30.10 in 10.0 mi Calm Calm - N/A   Clear
2:52 PM 21.2 °F 14.9 °F 3.2 °F 46% 30.10 in 10.0 mi SSE 4.6 mph - N/A   Clear
3:13 PM 21.2 °F 14.9 °F 6.8 °F 54% 30.10 in 10.0 mi SSE 4.6 mph - N/A   Clear
3:33 PM 19.4 °F 11.5 °F 6.8 °F 58% 30.10 in 10.0 mi SE 5.8 mph - N/A   Clear
3:52 PM 21.2 °F 14.9 °F 6.8 °F 54% 30.09 in 10.0 mi SE 4.6 mph - N/A   Clear
4:13 PM 21.2 °F 13.6 °F 3.2 °F 46% 30.09 in 10.0 mi South 5.8 mph - N/A   Clear
4:52 PM 19.4 °F 12.8 °F 3.2 °F 49% 30.07 in 10.0 mi South 4.6 mph - N/A   Clear
5:13 PM 17.6 °F 9.3 °F 5.0 °F 58% 30.07 in 10.0 mi SSE 5.8 mph - N/A   Clear
5:33 PM 17.6 °F 10.7 °F 3.2 °F 53% 30.06 in 10.0 mi South 4.6 mph - N/A   Clear
5:52 PM 15.8 °F 10.2 °F 3.2 °F 58% 30.07 in 10.0 mi SSW 3.5 mph - N/A   Clear
6:13 PM 15.8 °F 7.2 °F 3.2 °F 58% 30.06 in 10.0 mi South 5.8 mph - N/A   Clear
6:33 PM 15.8 °F 7.2 °F 3.2 °F 58% 30.06 in 10.0 mi South 5.8 mph - N/A   Clear
6:52 PM 15.8 °F 7.2 °F 3.2 °F 58% 30.06 in 10.0 mi South 5.8 mph - N/A   Clear
7:32 PM 15.8 °F 6.1 °F 5.0 °F 62% 30.03 in 10.0 mi South 6.9 mph - N/A   Clear
7:52 PM 15.8 °F 5.1 °F 5.0 °F 62% 30.01 in 10.0 mi South 8.1 mph - N/A   Clear
8:13 PM 15.8 °F 7.2 °F 5.0 °F 62% 30.00 in 10.0 mi South 5.8 mph - N/A   Clear
8:52 PM 14.0 °F 3.9 °F 5.0 °F 67% 29.97 in 10.0 mi SSE 6.9 mph - N/A   Clear
9:52 PM 14.0 °F 1.2 °F 5.0 °F 67% 29.92 in 10.0 mi SSE 10.4 mph - N/A   Clear
10:13 PM 14.0 °F 0.5 °F 6.8 °F 73% 29.90 in 10.0 mi SSE 11.5 mph - N/A   Clear
10:32 PM 14.0 °F 0.5 °F 6.8 °F 73% 29.90 in 10.0 mi SSE 11.5 mph 17.3 mph N/A   Clear
10:52 PM 14.0 °F 2.0 °F 6.8 °F 73% 29.89 in 10.0 mi South 9.2 mph 16.1 mph N/A   Clear
11:32 PM 14.0 °F 0.5 °F 6.8 °F 73% 29.88 in 10.0 mi South 11.5 mph 16.1 mph N/A   Clear
11:52 PM 15.8 °F 4.2 °F 8.6 °F 73% 29.86 in 10.0 mi South 9.2 mph 16.1 mph N/A   Clear